HP1COO-13 Weather Reports


time (UTC)temp
F
wind
direction
speed
knots
gust
knots
rain 1hr
in
rain 24hr
in
rain mn
in
humidity
%
barometer
mb
20260504100528 77 2 1.7 2.6 0.00 0.04 0.00 94 1008.3
20260504100459 77 15 1.7 2.6 0.00 0.03 0.00 94 1008.1
20260504090141 77 0 0.0 1.7 0.00 0.03 0.00 94 1007.6
20260504081522 77 77 0.9 3.5 0.00 0.04 0.00 94 1008.2
20260504080856 77 53 3.5 3.5 0.00 0.03 0.00 94 1008.0
20260504080541 77 85 1.7 4.3 0.00 0.04 0.00 94 1008.2
20260504060220 76 50 0.9 1.7 0.00 0.03 0.00 95 1009.2
20260504050518 77 64 1.7 3.5 0.00 0.04 0.00 95 1009.9
20260504045902 77 57 1.7 1.7 0.00 0.04 0.05 95 1009.7
20260504045516 77 104 1.7 4.3 0.00 0.04 0.05 94 1010.0
20260504044829 77 36 1.7 1.7 0.00 0.04 0.05 94 1009.7
20260504044534 77 107 1.7 4.3 0.00 0.04 0.05 94 1010.1
20260504043531 78 64 2.6 4.3 0.00 0.04 0.05 93 1010.1
20260504042549 78 26 2.6 4.3 0.00 0.04 0.05 93 1010.1
20260504041527 78 49 1.7 3.5 0.00 0.04 0.05 93 1010.0
20260504040617 77 82 1.7 2.6 0.00 0.04 0.05 94 1009.8
20260504040524 77 67 1.7 3.5 0.00 0.04 0.05 94 1010.0
20260504035544 77 0 0.0 0.9 0.00 0.04 0.05 94 1009.9
20260504035542 77 95 1.7 3.5 0.00 0.04 0.05 95 1010.2
20260504034744 77 74 1.7 2.6 0.00 0.04 0.05 95 1009.9
20260504034520 77 62 1.7 3.5 0.00 0.04 0.05 95 1010.1
20260504034344 77 57 1.7 1.7 0.00 0.04 0.05 95 1009.8
20260504034144 77 72 0.9 1.7 0.00 0.04 0.05 95 1009.9
20260504033544 77 51 1.7 1.7 0.00 0.04 0.05 95 1010.0
20260504033527 78 49 0.9 2.6 0.00 0.04 0.05 95 1010.2
20260504032525 78 29 0.9 3.5 0.00 0.04 0.05 95 1010.3
20260504032511 77 74 0.9 1.7 0.00 0.04 0.05 95 1009.9
20260504031522 78 229 0.9 2.6 0.00 0.04 0.05 95 1010.2
20260504031438 77 212 0.9 0.9 0.00 0.04 0.05 95 1010.0
20260504030519 78 134 0.9 2.6 0.00 0.04 0.05 95 1010.1
20260504030405 77 153 0.9 0.9 0.00 0.04 0.05 95 1009.8
20260504025332 77 46 1.7 1.7 0.00 0.04 0.05 95 1009.8
20260504024555 78 205 0.0 1.7 0.00 0.04 0.05 94 1010.1
20260504024259 77 283 0.9 0.9 0.00 0.04 0.05 94 1009.9
20260504023533 78 44 0.9 2.6 0.00 0.04 0.05 94 1010.0
20260504023225 78 37 0.9 1.7 0.00 0.04 0.05 94 1009.7
20260504022530 78 38 1.7 2.6 0.00 0.04 0.05 94 1010.0
20260504022152 78 11 1.7 1.7 0.00 0.04 0.05 93 1009.6
20260504021548 78 52 1.7 1.7 0.00 0.04 0.05 93 1009.7
20260504021120 78 52 1.7 1.7 0.00 0.04 0.05 93 1009.5
20260504020546 79 26 1.7 2.6 0.00 0.04 0.05 92 1009.7
20260504020047 78 37 0.9 0.9 0.00 0.04 0.05 92 1009.4
20260504015522 79 40 1.7 3.5 0.00 0.04 0.05 92 1009.6
20260504015014 78 86 1.7 1.7 0.00 0.04 0.05 92 1009.2
20260504014521 79 50 0.9 2.6 0.00 0.04 0.05 92 1009.5
20260504013941 78 32 0.9 1.7 0.00 0.04 0.05 92 1009.1
20260504013518 79 50 0.9 1.7 0.00 0.04 0.05 91 1009.5
20260504012908 78 30 0.9 1.7 0.00 0.04 0.05 92 1009.4
20260504012516 79 39 0.9 2.6 0.00 0.04 0.05 92 1009.4
20260504011835 79 325 0.9 1.7 0.00 0.04 0.05 92 1008.9
20260504011533 79 29 0.9 2.6 0.00 0.04 0.05 92 1009.4
20260504010802 79 354 0.9 1.7 0.00 0.04 0.05 92 1009.1
20260504010532 79 9 0.9 2.6 0.00 0.05 0.05 92 1009.3
20260504005729 79 0 0.0 1.7 0.00 0.04 0.05 92 1009.1
20260504005529 79 3 0.9 2.6 0.00 0.05 0.05 92 1009.4
20260504004656 79 360 1.7 1.7 0.00 0.04 0.05 93 1009.2
20260504004526 79 344 1.7 3.5 0.00 0.05 0.05 93 1009.5
20260504003623 79 146 0.9 2.6 0.00 0.04 0.05 93 1009.1
20260504003524 79 324 0.9 2.6 0.00 0.05 0.05 93 1009.5
20260504002550 79 0 0.0 0.9 0.00 0.04 0.05 92 1008.8
20260504002521 79 43 0.9 2.6 0.00 0.05 0.05 92 1009.4
20260504001519 79 328 1.7 2.6 0.00 0.05 0.05 92 1009.2
20260504001517 79 354 1.7 2.6 0.00 0.04 0.05 92 1008.8
20260504000617 80 303 1.7 2.6 0.00 0.05 0.05 92 1009.0
20260504000444 79 2 0.9 1.7 0.00 0.05 0.05 92 1008.7
20260503235535 80 322 1.7 3.5 0.00 0.05 0.05 92 1008.9
20260503235411 79 349 1.7 1.7 0.00 0.05 0.05 92 1008.8
20260503234532 80 274 2.6 4.3 0.00 0.06 0.05 91 1008.8
20260503234337 79 265 3.5 3.5 0.00 0.05 0.05 91 1008.4
20260503233530 80 354 1.7 2.6 0.00 0.06 0.05 91 1008.7
20260503233305 79 347 0.9 1.7 0.00 0.06 0.05 91 1008.3
20260503232528 80 342 2.6 3.5 0.00 0.06 0.05 91 1008.6
20260503232232 79 337 0.9 1.7 0.00 0.06 0.05 91 1008.4
20260503231525 80 3 1.7 3.5 0.00 0.07 0.05 91 1008.6
20260503230522 80 48 2.6 4.3 0.00 0.07 0.05 90 1008.4
20260503230125 80 50 2.6 2.6 0.00 0.08 0.05 90 1008.0
20260503225601 80 12 0.9 3.5 0.00 0.09 0.05 90 1008.2
20260503225052 80 14 1.7 3.5 0.00 0.10 0.05 89 1007.9
20260503224539 80 21 1.7 3.5 0.00 0.11 0.05 89 1008.2
20260503224020 80 20 0.9 2.6 0.00 0.12 0.05 89 1007.9
20260503223536 81 21 0.9 2.6 0.00 0.13 0.05 89 1008.2
20260503222947 80 290 0.9 1.7 0.00 0.16 0.05 89 1007.9
20260503222553 81 346 0.9 2.6 0.00 0.16 0.05 88 1008.4
20260503221914 80 337 0.9 2.6 0.00 0.20 0.05 88 1007.9
20260503221531 81 69 0.9 2.6 0.00 0.21 0.05 88 1008.3
20260503220548 81 48 1.7 3.5 0.00 0.25 0.05 88 1008.5
20260503215808 80 13 1.7 1.7 0.00 0.25 0.05 88 1008.2
20260503215526 81 340 2.6 3.5 0.00 0.26 0.05 88 1008.3
20260503214735 80 48 0.9 1.7 0.00 0.35 0.05 88 1007.6
20260503214524 81 33 1.7 3.5 0.00 0.35 0.05 88 1008.2
20260503213702 80 360 1.7 1.7 0.00 0.39 0.05 88 1007.9
20260503213542 80 18 2.6 4.3 0.00 0.40 0.05 88 1008.2
20260503212628 80 354 4.3 4.3 0.00 0.53 0.05 88 1007.8
20260503212519 81 318 2.6 5.2 0.00 0.54 0.05 88 1008.2
20260503211555 80 0 0.0 1.7 0.00 0.79 0.05 87 1007.8
20260503211516 81 29 0.9 2.6 0.00 0.74 0.05 88 1008.2
20260503210535 80 349 1.7 3.5 0.00 0.80 0.05 89 1008.3
20260503210522 80 292 0.9 2.6 0.00 0.79 0.05 88 1007.9
20260503205532 80 52 1.7 3.5 0.00 0.80 0.05 89 1008.3
20260503205449 79 154 0.9 1.7 0.00 0.79 0.05 89 1008.0
20260503204529 80 69 1.7 4.3 0.00 0.80 0.05 90 1008.5
20260503204417 79 62 0.9 3.5 0.00 0.87 0.05 89 1008.3
20260503203527 80 104 1.7 3.5 0.00 0.95 0.05 90 1008.6
20260503203344 79 40 0.9 2.6 0.00 1.06 0.05 90 1008.2
20260503202546 79 76 1.7 4.3 0.00 1.27 0.05 90 1008.7
20260503202311 79 0 0.0 1.7 0.00 1.61 0.05 90 1008.3
20260503201522 79 87 2.6 5.2 0.00 1.94 0.05 91 1008.7
20260503201238 79 98 1.7 2.6 0.00 2.34 0.05 91 1008.2
20260503200519 79 49 1.7 5.2 0.00 2.70 0.05 91 1008.4
20260503200204 79 48 1.7 2.6 0.00 2.75 0.05 91 1008.2
20260503195518 79 70 1.7 5.2 0.00 2.77 0.05 90 1008.7
20260503195131 79 34 1.7 5.2 0.00 2.77 0.05 90 1008.3
20260503194535 79 16 2.6 6.1 0.00 2.84 0.05 90 1008.6
20260503194059 79 347 3.5 4.3 0.00 2.87 0.05 90 1008.3
20260503193533 79 22 2.6 4.3 0.00 2.88 0.05 90 1008.7
20260503192530 80 50 1.7 5.2 0.00 2.88 0.05 91 1008.8
20260503191953 79 360 1.7 3.5 0.00 2.88 0.05 91 1008.5
20260503191528 79 45 2.6 5.2 0.01 2.89 0.05 90 1008.9
20260503190919 79 340 4.3 5.2 0.03 2.89 0.05 89 1008.6
20260503190525 79 40 1.7 4.3 0.04 2.90 0.05 89 1009.3
20260503185523 79 18 2.6 5.2 0.04 2.90 0.05 88 1009.6
20260503184813 79 4 0.9 1.7 0.03 2.89 0.04 88 1009.4
20260503184521 79 335 2.6 4.3 0.03 2.89 0.05 89 1009.8
20260503183741 78 7 1.7 1.7 0.03 2.89 0.04 88 1009.5
20260503183518 79 334 3.5 6.1 0.03 2.90 0.05 88 1010.0
20260503182536 80 356 1.7 5.2 0.03 2.91 0.05 87 1010.3
20260503181635 80 275 2.6 2.6 0.02 2.99 0.04 84 1010.0
20260503181534 82 36 4.3 8.7 0.03 3.00 0.04 84 1010.4
20260503180602 84 48 3.5 5.2 0.00 2.96 0.01 77 1010.0
20260503180531 86 71 7.0 13.0 0.00 2.97 0.02 76 1010.4
20260503175529 88 114 4.3 10.4 0.00 2.97 0.02 72 1010.2
20260503174527 89 177 3.5 7.0 0.00 2.97 0.02 70 1010.2
20260503173544 90 122 2.6 7.8 0.00 2.97 0.02 68 1010.0
20260503173422 90 103 3.5 5.2 0.00 2.96 0.01 68 1009.6
20260503172522 90 150 3.5 6.1 0.00 2.97 0.02 69 1010.1
20260503172349 89 167 4.3 5.2 0.00 2.96 0.01 69 1009.8
20260503171519 89 142 3.5 7.0 0.00 2.97 0.02 71 1010.2
20260503170517 88 170 4.3 7.8 0.00 2.97 0.02 73 1010.6
20260503150640 87 66 1.7 3.5 0.00 2.96 0.01 74 1010.7
20260503150528 87 101 1.7 5.2 0.00 2.97 0.02 75 1011.3